Weather History for Winchester, TN

Change the Weather History Date:

Friday, March 22, 2013

  Actual Average (KTHA) Record (KTHA)
Temperature  
Mean Temperature 38 °F -  
Max Temperature 46 °F 61 °F 66 °F (2014)
Min Temperature 30 °F 38 °F 33 °F (2013)
Degree Days  
Heating Degree Days 27    
Moisture  
Dew Point 25 °F    
Average Humidity 56    
Maximum Humidity 80    
Minimum Humidity 39    
Precipitation  
Precipitation 0.00 in - - ()
Sea Level Pressure  
Sea Level Pressure 30.00 in    
Wind  
Wind Speed 4 mph (SE)    
Max Wind Speed 10 mph    
Max Gust Speed -    
Visibility 10 miles    
Events      
Averages and records for this station are not official NWS values.
T = Trace of Precipitation, MM = Missing Value Source: NWS Daily Summary

Daily Weather History Graph

Daily Weather History Graph

Search for Another Location

Airport:

Trip Planner

Search our weather history database for the weather conditions in past years. The results will help you decide how hot, cold, wet, or windy it might be!

Date:

Astronomy

Mar. 22, 2013 Rise Set
Actual Time 7:44 AM EDT 7:57 PM EDT
Civil Twilight 7:19 AM EDT 8:23 PM EDT
Nautical Twilight 6:49 AM EDT 8:52 PM EDT
Astronomical Twilight 6:19 AM EDT 9:22 PM EDT
Moon 3:33 PM EDT (3/22) 4:35 AM EDT (3/22)
Length of Visible Light 13h 03m
Length of Day
12h 13m
Waxing Gibbous, 77% of the Moon is Illuminated
Mar 22
Waxing Gibbous
Mar 27
Full
Apr 3
Last Quarter
Apr 10
New
Apr 18
First Quarter

Hourly Weather History & Observations

Time (EDT) Temp. Windchill Dew Point Humidity Pressure Visibility Wind Dir Wind Speed Gust Speed Precip Events Conditions
12:15 AM 30.2 °F - 24.8 °F 80% 29.98 in 10.0 mi Calm Calm - N/A   Clear
12:35 AM 30.2 °F 26.7 °F 24.8 °F 80% 30.00 in 10.0 mi SSW 3.5 mph - N/A   Clear
12:55 AM 32.0 °F - 24.8 °F 75% 30.00 in 10.0 mi Calm Calm - N/A   Scattered Clouds
1:35 AM 33.8 °F - 24.8 °F 70% 30.01 in 10.0 mi Calm Calm - N/A   Mostly Cloudy
1:55 AM 32.0 °F - 26.6 °F 80% 30.01 in 10.0 mi Calm Calm - N/A   Overcast
2:15 AM 33.8 °F 30.8 °F 26.6 °F 75% 30.00 in 10.0 mi East 3.5 mph - N/A   Overcast
2:35 AM 33.8 °F - 26.6 °F 75% 29.99 in 10.0 mi Calm Calm - N/A   Overcast
2:55 AM 33.8 °F - 26.6 °F 75% 29.98 in 10.0 mi Calm Calm - N/A   Overcast
3:15 AM 35.6 °F - 24.8 °F 65% 29.98 in 10.0 mi Calm Calm - N/A   Overcast
3:35 AM 33.8 °F - 24.8 °F 70% 29.99 in 10.0 mi Calm Calm - N/A   Overcast
3:55 AM 33.8 °F - 24.8 °F 70% 29.99 in 10.0 mi Calm Calm - N/A   Overcast
4:15 AM 33.8 °F 30.8 °F 24.8 °F 70% 29.99 in 10.0 mi NNE 3.5 mph - N/A   Overcast
4:35 AM 33.8 °F - 24.8 °F 70% 29.98 in 10.0 mi Calm Calm - N/A   Overcast
4:55 AM 33.8 °F 28.6 °F 23.0 °F 65% 29.98 in 10.0 mi ESE 5.8 mph - N/A   Overcast
5:15 AM 35.6 °F 29.9 °F 19.4 °F 52% 29.98 in 10.0 mi East 6.9 mph - N/A   Overcast
5:35 AM 35.6 °F 30.7 °F 19.4 °F 52% 29.98 in 10.0 mi ESE 5.8 mph - N/A   Overcast
5:55 AM 35.6 °F 29.9 °F 19.4 °F 52% 29.98 in 10.0 mi ESE 6.9 mph - N/A   Overcast
6:15 AM 35.6 °F 29.9 °F 19.4 °F 52% 29.98 in 10.0 mi ESE 6.9 mph - N/A   Overcast
6:35 AM 35.6 °F 29.2 °F 19.4 °F 52% 29.98 in 10.0 mi ESE 8.1 mph - N/A   Overcast
6:55 AM 35.6 °F 29.2 °F 19.4 °F 52% 29.99 in 10.0 mi ESE 8.1 mph - N/A   Overcast
7:15 AM 35.6 °F 28.6 °F 17.6 °F 48% 30.00 in 10.0 mi ESE 9.2 mph - N/A   Overcast
7:35 AM 35.6 °F 29.9 °F 19.4 °F 52% 30.00 in 10.0 mi ESE 6.9 mph - N/A   Overcast
7:55 AM 35.6 °F 30.7 °F 19.4 °F 52% 30.00 in 10.0 mi SE 5.8 mph - N/A   Overcast
8:15 AM 35.6 °F 30.7 °F 19.4 °F 52% 30.01 in 10.0 mi SE 5.8 mph - N/A   Overcast
8:35 AM 35.6 °F 30.7 °F 19.4 °F 52% 30.02 in 10.0 mi SE 5.8 mph - N/A   Overcast
8:55 AM 35.6 °F 28.6 °F 19.4 °F 52% 30.02 in 10.0 mi SE 9.2 mph - N/A   Overcast
9:15 AM 35.6 °F 29.9 °F 21.2 °F 56% 30.02 in 10.0 mi ESE 6.9 mph - N/A   Overcast
9:35 AM 35.6 °F 28.0 °F 19.4 °F 52% 30.02 in 10.0 mi ESE 10.4 mph - N/A   Overcast
9:55 AM 35.6 °F 28.6 °F 19.4 °F 52% 30.02 in 10.0 mi ESE 9.2 mph - N/A   Overcast
10:15 AM 35.6 °F 29.9 °F 19.4 °F 52% 30.02 in 10.0 mi ESE 6.9 mph - N/A   Overcast
10:35 AM 37.4 °F 30.8 °F 19.4 °F 48% 30.03 in 10.0 mi SE 9.2 mph - N/A   Overcast
10:55 AM 37.4 °F 30.3 °F 19.4 °F 48% 30.02 in 10.0 mi ESE 10.4 mph - N/A   Overcast
11:15 AM 37.4 °F 30.8 °F 19.4 °F 48% 30.01 in 10.0 mi SSE 9.2 mph - N/A   Overcast
11:35 AM 39.2 °F 33.6 °F 19.4 °F 45% 30.02 in 10.0 mi SE 8.1 mph - N/A   Overcast
11:55 AM 39.2 °F 33.0 °F 19.4 °F 45% 30.03 in 10.0 mi SE 9.2 mph - N/A   Overcast
12:15 PM 39.2 °F 33.6 °F 19.4 °F 45% 30.03 in 10.0 mi SE 8.1 mph - N/A   Overcast
12:35 PM 41.0 °F 37.1 °F 21.2 °F 45% 30.04 in 10.0 mi South 5.8 mph - N/A   Overcast
12:55 PM 42.8 °F 38.6 °F 21.2 °F 42% 30.03 in 10.0 mi SSE 6.9 mph - N/A   Overcast
1:15 PM 42.8 °F 38.6 °F 21.2 °F 42% 30.03 in 10.0 mi SSE 6.9 mph - N/A   Overcast
1:35 PM 44.6 °F 40.2 °F 21.2 °F 39% 30.02 in 10.0 mi SE 8.1 mph - N/A   Mostly Cloudy
1:55 PM 44.6 °F 40.2 °F 24.8 °F 46% 30.02 in 10.0 mi SSE 8.1 mph - N/A   Scattered Clouds
2:15 PM 44.6 °F 40.7 °F 23.0 °F 43% 30.01 in 10.0 mi SSE 6.9 mph - N/A   Mostly Cloudy
2:35 PM 44.6 °F 41.4 °F 24.8 °F 46% 30.01 in 10.0 mi SSE 5.8 mph - N/A   Overcast
2:55 PM 44.6 °F 41.4 °F 24.8 °F 46% 30.00 in 10.0 mi ESE 5.8 mph - N/A   Overcast
3:15 PM 44.6 °F 42.2 °F 24.8 °F 46% 29.99 in 10.0 mi SSE 4.6 mph - N/A   Overcast
3:35 PM 44.6 °F 43.1 °F 26.6 °F 49% 29.99 in 10.0 mi ESE 3.5 mph - N/A   Overcast
3:55 PM 44.6 °F 42.2 °F 26.6 °F 49% 29.98 in 10.0 mi ESE 4.6 mph - N/A   Overcast
4:15 PM 44.6 °F 43.1 °F 26.6 °F 49% 29.97 in 10.0 mi ESE 3.5 mph - N/A   Overcast
4:35 PM 46.4 °F 45.2 °F 26.6 °F 46% 29.97 in 10.0 mi SE 3.5 mph - N/A   Overcast
4:55 PM 46.4 °F 45.2 °F 28.4 °F 50% 29.97 in 10.0 mi SE 3.5 mph - N/A   Overcast
5:15 PM 46.4 °F 45.2 °F 28.4 °F 50% 29.97 in 10.0 mi ESE 3.5 mph - N/A   Overcast
5:35 PM 46.4 °F 44.3 °F 30.2 °F 53% 29.97 in 10.0 mi ESE 4.6 mph - N/A   Overcast
5:55 PM 46.4 °F 43.5 °F 30.2 °F 53% 29.96 in 10.0 mi ESE 5.8 mph - N/A   Overcast
6:15 PM 46.4 °F 45.2 °F 30.2 °F 53% 29.97 in 10.0 mi SE 3.5 mph - N/A   Overcast
6:35 PM 46.4 °F 44.3 °F 30.2 °F 53% 29.97 in 10.0 mi SE 4.6 mph - N/A   Overcast
6:55 PM 46.4 °F 44.3 °F 30.2 °F 53% 29.97 in 10.0 mi SE 4.6 mph - N/A   Overcast
7:15 PM 46.4 °F 44.3 °F 30.2 °F 53% 29.97 in 10.0 mi SE 4.6 mph - N/A   Overcast
7:35 PM 46.4 °F 45.2 °F 30.2 °F 53% 29.97 in 10.0 mi SE 3.5 mph - N/A   Overcast
7:55 PM 46.4 °F - 30.2 °F 53% 29.98 in 10.0 mi Calm Calm - N/A   Overcast
8:15 PM 46.4 °F - 30.2 °F 53% 29.99 in 10.0 mi Calm Calm - N/A   Overcast
8:35 PM 46.4 °F 45.2 °F 30.2 °F 53% 29.99 in 10.0 mi SE 3.5 mph - N/A   Overcast
8:55 PM 44.6 °F 43.1 °F 32.0 °F 61% 29.99 in 10.0 mi SE 3.5 mph - N/A   Overcast
9:15 PM 44.6 °F 42.2 °F 30.2 °F 57% 29.99 in 10.0 mi ESE 4.6 mph - N/A   Overcast
9:35 PM 44.6 °F 42.2 °F 28.4 °F 53% 29.99 in 10.0 mi ESE 4.6 mph - N/A   Overcast
9:55 PM 44.6 °F 42.2 °F 28.4 °F 53% 29.99 in 10.0 mi East 4.6 mph - N/A   Overcast
10:15 PM 44.6 °F 41.4 °F 28.4 °F 53% 30.00 in 10.0 mi ESE 5.8 mph - N/A   Overcast
10:35 PM 44.6 °F 40.7 °F 30.2 °F 57% 29.99 in 10.0 mi ESE 6.9 mph - N/A   Overcast
10:55 PM 44.6 °F 43.1 °F 30.2 °F 57% 30.01 in 10.0 mi East 3.5 mph - N/A   Overcast
11:15 PM 42.8 °F 39.3 °F 32.0 °F 66% 30.00 in 10.0 mi East 5.8 mph - N/A   Overcast
11:35 PM 44.6 °F 42.2 °F 32.0 °F 61% 30.00 in 10.0 mi ESE 4.6 mph - N/A   Overcast
11:55 PM 42.8 °F 39.3 °F 35.6 °F 76% 29.99 in 6.0 mi East 5.8 mph - N/A   Overcast